Home > Weather > Telford > Past weeks

Flag for United Kingdom Past Weather in Telford, England, United Kingdom — Yesterday and Last 2 Weeks

Now
59 °F

Passing clouds.


Feels Like: 60 °F
Forecast: 50 / 64 °F
Wind: 3 mph from South

Location: Shawbury

Current Time: Jul 29, 2016 at 1:19:43 AM

Latest Report: Jul 29, 2016 at 12:50 AM


Visibility: N/A

Pressure: 29.80 "Hg

Humidity: 94%

Dew Point: 57 °F

Location of TelfordLocation

Past Weather in Telford — Graph

°F

Telford Temperature Yesterday

Maximum temperature yesterday: 70 °F (at 4:50 PM)
Minimum temperature yesterday: 50 °F (at 1:50 AM)
Average temperature yesterday: 60 °F

High & Low Weather Summary for the Past Weeks

 TemperatureHumidityPressure
High90 °F (Jul 19, 3:50 PM)100% (Jul 18, 3:50 AM)30.30 "Hg (Jul 18, 3:50 AM)
Low45 °F (Jul 14, 3:50 AM)42% (Jul 19, 11:50 AM)29.71 "Hg (Jul 20, 4:50 AM)
Average64 °F79%30.06 "Hg
* Reported Jul 13 11:50 PM — Jul 28 11:50 PM, Telford, Weather by CustomWeather, © 2016

Note: Actual official high and low records may vary slightly from our data, if they occured in-between our weather recording intervals... More about our weather records

Advertising

Telford Weather History for the Previous 24 Hours

Scroll right to see more
 ConditionsComfort  
Time TempWeatherWind HumidityBarometerVisibility
11:50 PM
Thu, Jul 28
59 °FPartly cloudy.5 mph94%29.83 "HgN/A
10:50 PM59 °FPassing clouds.7 mph94%29.83 "HgN/A
9:50 PM61 °FScattered clouds.5 mph88%29.83 "HgN/A
8:50 PM63 °FPartly sunny.9 mph83%29.83 "HgN/A
7:50 PM64 °FPartly sunny.13 mph78%29.83 "HgN/A
6:50 PM68 °FScattered clouds.17 mph69%29.80 "HgN/A
5:50 PM68 °FPassing clouds.16 mph69%29.80 "HgN/A
4:50 PM70 °FPassing clouds.18 mph64%29.83 "HgN/A
3:50 PM68 °FScattered clouds.15 mph73%29.83 "HgN/A
2:50 PM63 °FBroken clouds.9 mph94%29.83 "HgN/A
1:50 PM63 °FPartly sunny.13 mph88%29.83 "HgN/A
12:50 PM61 °FMore clouds than sun.13 mph88%29.86 "HgN/A
11:50 AM59 °FDrizzle. Partly sunny.9 mph88%29.89 "HgN/A
10:50 AM57 °FRain. More clouds than sun.12 mph94%29.92 "Hg3 mi
9:50 AM61 °FLight rain. More clouds than sun.12 mph72%29.92 "HgN/A
8:50 AM61 °FPartly sunny.10 mph72%29.92 "HgN/A
7:50 AM59 °FPartly sunny.7 mph77%29.92 "HgN/A
6:50 AM57 °FPartly sunny.6 mph82%29.95 "HgN/A
5:50 AM55 °FPartly cloudy.3 mph88%29.95 "HgN/A
4:50 AM54 °FPassing clouds.1 mph94%29.98 "HgN/A
3:50 AM54 °FOvercast.1 mph88%29.98 "HgN/A
2:50 AM52 °FMostly cloudy.5 mph94%30.01 "HgN/A
1:50 AM50 °FOvercast.3 mph94%30.01 "HgN/A
Weather by CustomWeather, © 2016

See weather overviewHow to use our weather pages